TimeMST,TemperatureF,Dew PointF,Humidity,Sea Level PressureIn,VisibilityMPH,Wind Direction,Wind SpeedMPH,Gust SpeedMPH,PrecipitationIn,Events,Conditions,WindDirDegrees,DateUTC
12:53 AM,61.0,37.0,41,29.72,10.0,ESE,5.8,-,N/A,,Clear,110,2013-03-17 07:53:00
1:53 AM,61.0,35.1,38,29.72,10.0,Calm,Calm,-,N/A,,Clear,0,2013-03-17 08:53:00
2:53 AM,64.0,34.0,33,29.71,10.0,East,5.8,-,N/A,,Clear,100,2013-03-17 09:53:00
3:53 AM,63.0,33.1,33,29.71,10.0,East,5.8,-,N/A,,Clear,100,2013-03-17 10:53:00
4:53 AM,63.0,33.1,33,29.72,10.0,East,10.4,-,N/A,,Clear,80,2013-03-17 11:53:00
5:53 AM,62.1,33.1,34,29.74,10.0,East,6.9,-,N/A,,Clear,90,2013-03-17 12:53:00
6:53 AM,61.0,33.1,35,29.75,10.0,SE,8.1,-,N/A,,Clear,130,2013-03-17 13:53:00
7:53 AM,63.0,33.1,33,29.78,10.0,East,8.1,-,N/A,,Clear,90,2013-03-17 14:53:00
8:53 AM,68.0,32.0,26,29.80,10.0,SE,11.5,-,N/A,,Clear,130,2013-03-17 15:53:00
9:53 AM,71.1,32.0,24,29.81,10.0,South,6.9,-,N/A,,Clear,180,2013-03-17 16:53:00
10:53 AM,73.9,34.0,23,29.81,10.0,SW,8.1,-,N/A,,Clear,220,2013-03-17 17:53:00
11:53 AM,75.0,32.0,21,29.80,10.0,WNW,3.5,-,N/A,,Clear,300,2013-03-17 18:53:00
12:53 PM,75.9,32.0,20,29.79,10.0,Variable,5.8,-,N/A,,Clear,0,2013-03-17 19:53:00
1:53 PM,78.1,32.0,19,29.76,10.0,Calm,Calm,-,N/A,,Clear,0,2013-03-17 20:53:00
2:53 PM,79.0,30.9,17,29.73,10.0,South,3.5,-,N/A,,Clear,180,2013-03-17 21:53:00
3:53 PM,81.0,28.9,15,29.73,10.0,Variable,5.8,-,N/A,,Clear,0,2013-03-17 22:53:00
4:53 PM,82.0,23.0,11,29.71,10.0,WSW,12.7,-,N/A,,Clear,240,2013-03-17 23:53:00
5:53 PM,82.0,15.1,8,29.72,10.0,West,12.7,-,N/A,,Clear,270,2013-03-18 00:53:00
6:53 PM,79.0,19.0,11,29.73,10.0,WSW,12.7,-,N/A,,Clear,250,2013-03-18 01:53:00
7:53 PM,75.0,19.9,13,29.75,10.0,SW,6.9,-,N/A,,Clear,230,2013-03-18 02:53:00
8:53 PM,72.0,21.9,15,29.78,10.0,West,8.1,-,N/A,,Clear,260,2013-03-18 03:53:00
9:53 PM,68.0,21.9,17,29.78,10.0,NW,3.5,-,N/A,,Clear,310,2013-03-18 04:53:00
10:53 PM,64.9,25.0,22,29.80,10.0,Calm,Calm,-,N/A,,Clear,0,2013-03-18 05:53:00
11:53 PM,57.9,30.0,35,29.80,10.0,Calm,Calm,-,N/A,,Clear,0,2013-03-18 06:53:00